Location: *
(50.2903°S, 172.5375°W)
Time: 20:42:22
(UTC+00:00)

NOSS 3-2 (C) - Pass Details

Date: 17 November 2019
Orbit: 821 x 1392 km, 63.4° (Epoch: 25 November)

Event Time Altitude Azimuth Distance (km) Brightness Sun altitude
Exits shadow 13:36:03 14° 300° (WNW) 3,036 5.5 -14.1°
Maximum altitude 13:43:12 64° 220° (SW) 1,352 4.3 -13.4°
Drops below altitude 10° 13:50:25 10° 138° (SE) 2,992 7.6 -12.7°
Sets 13:52:58 0° 134° (SE) 3,871 8.6 -12.5°
